Regional Weather Roundup
Issued by NWS

Home | Current Version | Previous Version | Text Only | Print | Product List | Glossary On
Versions: 1 2 3 4 5 6 7 8 9 10 11 12 13 14 15 16 17 18 19 20 21 22 23 24 25 26 27 28 29 30 31 32 33 34 35 36 37 38 39 40 41 42 43 44 45 46 47 48 49 50
000
ASUS43 KMKX 290459
RWRWI

WISCONSIN REGIONAL WEATHER ROUNDUP
NATIONAL WEATHER SERVICE MILWAUKEE/SULLIVAN WI
1200 AM CDT SUN MAR 29 2015

NOTE: "FAIR" INDICATES FEW OR NO CLOUDS BELOW 12,000 FEET WITH NO
SIGNIFICANT WEATHER AND/OR OBSTRUCTIONS TO VISIBILITY.

WIZ001-002-006>008-014>016-023>028-290600-
NORTHWEST WISCONSIN

CITY           SKY/WX    TMP DP  RH WIND       PRES   REMARKS
SUPERIOR ARPT  MOCLDY    35  18  50 SW15G23   29.89F WCI  26
ASHLAND        PTCLDY    35  14  42 S13       29.92F WCI  26
HAYWARD        MOCLDY    34  15  46 S14G24    29.94F WCI  25
SIREN          MOCLDY    35  18  49 S15G23    29.93F WCI  25
CUMBERLAND     MOCLDY    32  18  55 S17       29.96F WCI  21
RICE LAKE      MOCLDY    33  16  49 SE15      29.98F WCI  23
CHETEK         MOCLDY    33  16  48 SE16G23   29.99F WCI  23
LADYSMITH      MOCLDY    33  16  48 S13       30.02F WCI  24
EAU CLAIRE     NOT AVBL
MENOMONIE      PTCLDY    35  16  46 S16       29.99F WCI  25
NEW RICHMOND   MOCLDY    34  20  56 S14G20    29.96F WCI  24
OSCEOLA        MOCLDY    34  21  59 SE13      29.97F WCI  25
$$

WIZ003>005-009-010-017-018-290600-
NORTH CENTRAL WISCONSIN

CITY           SKY/WX    TMP DP  RH WIND       PRES   REMARKS
MANITOWISH WTR PTCLDY    30  11  45 S10       29.98F WCI  21
ARBOR VITAE    PTCLDY    32  15  49 S10       30.00F WCI  23
WOODRUFF       PTCLDY    32  15  49 S10       30.00F WCI  23
RHINELANDER    PTCLDY    30  12  47 S10       30.02F WCI  21
EAGLE RIVER    PTCLDY    31   9  39 SW9       30.01F WCI  23
LAND O LAKES   PTCLDY    31  12  45 S9G17     29.99F WCI  23
PHILLIPS       MOCLDY    31  12  46 S9        29.99F WCI  23
TOMAHAWK       PTCLDY    30  12  47 S3        30.04F
MEDFORD        MOCLDY    31  17  57 S12G17    30.04F WCI  21
MERRILL        PTCLDY    31  15  49 SW8       30.07F WCI  24
$$

WIZ029-030-035-036-043>047-290600-
CENTRAL WISCONSIN

CITY           SKY/WX    TMP DP  RH WIND       PRES   REMARKS
WAUSAU         PTCLDY    31  15  52 S10       30.06F WCI  22
MOSINEE        PTCLDY    30  18  59 S10       30.09F WCI  21
MARSHFIELD     MOCLDY    32  14  47 S13       30.07F WCI  22
STEVENS POINT  PTCLDY    29  13  51 S10       30.12F WCI  19
WAUPACA        PTCLDY    30  15  54 S6        30.15F WCI  24
WAUTOMA        NOT AVBL
WISC RAPIDS    MOCLDY    31  12  45 S9        30.12F WCI  23
CAMP DOUGLAS   NOT AVBL
$$

WIZ011>013-019>022-031-037>040-048>050-290600-
NORTHEAST WISCONSIN

CITY           SKY/WX    TMP DP  RH WIND       PRES   REMARKS
ANTIGO         PTCLDY    29  15  57 SW13      30.07F WCI  18
SHAWANO        MOCLDY    33  15  47 S5        30.14F WCI  28
OCONTO         PTCLDY    29  20  70 S7        30.15F WCI  22
STURGEON BAY   CLEAR     27  18  69 S12       30.17F WCI  16
GREEN BAY      PTCLDY    28  21  75 S12       30.16F WCI  18
MANITOWOC      NOT AVBL
APPLETON       PTCLDY    30  16  55 S9        30.16F WCI  22
CLINTONVILLE   PTCLDY    32  16  51 SW9       30.14F WCI  24
OSHKOSH        PTCLDY    26  17  68 S7        30.16F WCI  18
$$

WIZ032>034-041-042-053>061-290600-
SOUTHWEST WISCONSIN

CITY           SKY/WX    TMP DP  RH WIND       PRES   REMARKS
LA CROSSE      MOCLDY    37  16  42 S13       30.09F WCI  29
SPARTA         MOCLDY    34  12  40 S13       30.12F WCI  25
VIROQUA        MOCLDY    32  16  52 S10       30.11F WCI  23
BOSCOBEL       CLEAR     34  14  43 S9        30.16F WCI  27
PRAIRIE DU CHI CLEAR     33  13  42 SE6       30.15F WCI  28
PLATTEVILLE    CLEAR     29  18  62 SE8       30.17F WCI  21
$$

WIZ056-057-062-063-064-067-068-290600-
SOUTH CENTRAL WISCONSIN

CITY           SKY/WX    TMP DP  RH WIND       PRES   REMARKS
REEDSBURG      PTCLDY    31  15  50 S9        30.15F WCI  23
BARABOO/DELLS  PTCLDY    30  15  52 S10       30.14F WCI  21
LONE ROCK      NOT AVBL
MINERAL POINT  CLEAR     30  16  55 S10       30.15F WCI  21
MADISON        CLEAR     31  16  54 S8        30.18F WCI  23
MIDDLETON      CLEAR     32  14  48 S7        30.19F WCI  26
WATERTOWN      CLEAR     25  17  69 SE6       30.21S WCI  18
MONROE           N/A     30  19  64 S10       30.19F WCI  21
JANESVILLE     CLEAR     32  16  51 S6        30.21F WCI  26
$$

WIZ051-052-058>065-066-070>072-290600-
SOUTHEAST WISCONSIN

CITY           SKY/WX    TMP DP  RH WIND       PRES   REMARKS
MILWAUKEE      FAIR      26  13  57 S6        30.24F WCI  19
WAUKESHA       CLEAR     25  12  58 S5        30.24F WCI  19
MILWAUKEE/TIMM CLEAR     27  12  54 S8        30.24F WCI  18
RACINE         CLEAR     26  16  65 S7        30.26S WCI  18
BURLINGTON     CLEAR     23  12  61 CALM      30.24F
KENOSHA        CLEAR     25  12  58 S7        30.25S WCI  17
FOND DU LAC    PTCLDY    26  17  68 S9        30.18F WCI  17
SHEBOYGAN      CLEAR     22  16  78 S6        30.21F WCI  14
WEST BEND      CLEAR     27  12  54 S5        30.21F WCI  21
JUNEAU         CLEAR     27  16  63 SE7       30.21F WCI  19
$$

LSZ147-162-290600-
LAKE SUPERIOR

STATION/POSITION TIME  TEMP    WIND        PRES    WAVE
                       AIR SEA DIR/SP/G            HT/PER
                 (UTC) (F)     (DEG/KT/KT) (MB)    (FT/S)
DEVILS ISLAND    0400   37     200/ 12/ 17 1014.6F
PORT WING        0400   37     180/ 13/ 18 1013.9F
SAXON HARBOR     0440   36     200/  9/ 19 1013.9F
$$

LMZ867-665-643>646-290600-
LAKE MICHIGAN

STATION/POSITION TIME  TEMP    WIND        PRES    WAVE
                       AIR SEA DIR/SP/G            HT/PER
                 (UTC) (F)     (DEG/KT/KT) (MB)    (FT/S)
NORTHPORT PIER   0400   30     170/  7/ 13 1021.3F
SISTER BAY       0402   29     190/ 17/ 20   N/A
KEWAUNEE LAKESHO 0412   29     200/ 10/ 15 1021.9F
SHEBOYGAN LAKESH 0400   31     220/  9/ 10 1024.7S
PORT WASHINGTON  0440   27     210/  5/  8 1024.4F
MILWAUKEE LAKESH 0400   29     210/ 12/ 13   N/A
KENOSHA   LAKESH 0400   31     190/ 10/ 19 1024.4F
$$

TC  - TEMPERATURE IN CELSIUS
VSB - VISIBILITY IN STATUTE MILES
WCI - WIND CHILL INDEX
HX  - HEAT INDEX




USA.gov is the U.S. government's official web portal to all federal, state and local government web resources and services.